Terminal Aerodrome Forecast
Issued by NWS Omaha/Valley, NE

Home | Current Version | Previous Version | Text Only | Print | Product List | Glossary On
Versions: 1 2 3 4 5 6 7 8 9 10 11 12 13 14 15 16 17 18 19 20 21 22 23 24 25 26 27 28 29 30 31 32 33
000
FTUS43 KOAX 202320
TAFOMA
TAF
KOMA 202320Z 2100/2124 14018KT P6SM SCT035 SCT150
     FM210200 16012KT P6SM BKN250
     FM211400 18010KT P6SM BKN250
     FM211600 21014KT P6SM SCT100=

USA.gov is the U.S. government's official web portal to all federal, state and local government web resources and services.